period_start,C,m1,H,J0,J1,J2,J3,J4,J5,JA,JB,JC,JD,JJ,JK,JN,#
2016-05-10 00:03:48,0.02,0.10,0.00,17.84,22.64,26.62,14.93,49.42,1014.68,2055.53,3514.07,3154.68,3578.36,600.44,605.87,4.82,0000 0000 0000 0000 000000
2016-05-10 00:08:49,0.01,0.10,0.00,17.84,22.64,26.63,14.82,49.30,1014.66,2055.43,3513.83,3154.05,3578.00,599.68,605.07,4.87,0000 0000 0000 0000 000000
2016-05-10 00:13:50,0.00,0.10,0.00,17.87,22.64,26.62,14.80,49.22,1014.66,2055.33,3513.11,3154.00,3577.68,599.51,604.92,4.92,0000 0000 0000 0000 000000
2016-05-10 00:18:51,0.02,0.10,0.00,17.89,22.64,26.64,14.94,49.44,1014.66,2055.18,3512.83,3153.67,3577.04,600.17,605.55,4.97,0000 0000 0000 0000 000000
2016-05-10 00:23:53,0.04,0.11,0.00,17.89,22.64,26.67,14.84,49.20,1014.66,2055.23,3512.07,3153.04,3576.99,599.78,605.08,5.02,0000 0000 0000 0000 000000
2016-05-10 00:28:53,0.00,0.11,0.00,17.92,22.65,26.69,14.87,49.43,1014.66,2055.21,3511.99,3153.00,3576.49,600.00,605.30,5.07,0000 0000 0000 0000 000000
2016-05-10 00:33:54,0.01,0.11,0.00,17.94,22.67,26.67,14.89,49.53,1014.66,2055.15,3511.42,3152.90,3576.02,600.11,605.44,5.12,0000 0000 0000 0000 000000
2016-05-10 00:38:56,0.02,0.11,0.00,17.94,22.67,26.70,14.78,49.20,1014.66,2055.07,3510.99,3152.16,3575.98,599.79,605.11,5.17,0000 0000 0000 0000 000000
2016-05-10 00:43:57,0.02,0.11,0.00,17.96,22.67,26.71,14.89,49.33,1014.66,2055.04,3510.33,3152.00,3575.32,600.21,605.43,5.22,0000 0000 0000 0000 000000
2016-05-10 00:48:58,0.00,0.11,0.00,17.98,22.67,26.74,14.87,49.49,1014.67,2055.04,3510.00,3151.94,3575.00,600.37,605.52,5.27,0000 0000 0000 0000 000000
2016-05-10 00:53:59,0.04,0.11,0.00,18.00,22.69,26.77,14.83,49.46,1014.68,2055.03,3509.48,3151.24,3574.74,599.83,604.93,5.32,0000 0000 0000 0000 000000
2016-05-10 00:59:00,0.01,0.11,0.00,18.01,22.69,26.80,14.77,49.39,1014.68,2055.02,3509.00,3150.99,3574.05,599.77,604.80,5.37,0000 0000 0000 0000 000000
2016-05-10 01:04:01,0.01,0.11,0.00,18.00,22.69,26.80,14.89,49.41,1014.67,2055.03,3508.52,3150.97,3573.98,599.80,604.97,5.42,0000 0000 0000 0000 000000
2016-05-10 01:09:03,0.03,0.11,0.00,18.02,22.70,26.79,14.91,49.52,1014.67,2055.01,3508.02,3150.28,3573.39,600.02,605.20,5.47,0000 0000 0000 0000 000000
2016-05-10 01:14:04,0.01,0.11,0.00,18.05,22.72,26.78,14.84,49.42,1014.69,2055.01,3507.68,3150.00,3573.00,600.02,605.05,5.52,0000 0000 0000 0000 000000
2016-05-10 01:19:05,0.01,0.12,0.00,18.06,22.72,26.78,14.84,49.27,1014.70,2055.00,3507.03,3149.97,3572.88,600.01,605.11,5.57,0000 0000 0000 0000 000000
2016-05-10 01:24:07,0.03,0.12,0.00,18.09,22.73,26.83,14.85,49.33,1014.69,2055.00,3506.84,3149.55,3572.14,599.94,605.01,5.62,0000 0000 0000 0000 000000
2016-05-10 01:29:08,0.02,0.12,0.00,18.09,22.74,26.81,14.85,49.39,1014.67,2055.00,3506.09,3149.05,3572.01,599.75,604.67,5.67,0000 0000 0000 0000 000000
2016-05-10 01:34:09,0.00,0.12,0.00,18.10,22.74,26.85,14.81,49.32,1014.68,2055.00,3505.88,3149.00,3571.67,599.93,604.83,5.72,0000 0000 0000 0000 000000
2016-05-10 01:39:11,0.03,0.12,0.00,18.14,22.76,26.85,14.77,49.33,1014.68,2055.00,3505.15,3148.59,3571.04,599.65,604.44,5.77,0000 0000 0000 0000 000000
2016-05-10 01:44:12,0.01,0.12,0.00,18.16,22.77,26.86,14.88,49.29,1014.69,2055.00,3504.92,3148.03,3570.93,599.64,604.36,5.82,0000 0000 0000 0000 000000
2016-05-10 01:49:13,0.02,0.12,0.00,18.19,22.78,26.89,14.84,49.34,1014.68,2055.00,3504.14,3147.97,3570.20,600.21,604.95,5.87,0000 0000 0000 0000 000000
2016-05-10 01:54:15,0.02,0.12,0.00,18.20,22.79,26.87,14.84,49.35,1014.70,2054.99,3503.98,3147.46,3569.99,599.91,604.63,5.92,0000 0000 0000 0000 000000
2016-05-10 01:59:16,0.02,0.12,0.00,18.23,22.80,26.93,14.81,49.32,1014.72,2054.98,3503.24,3147.01,3569.45,599.94,604.63,5.97,0000 0000 0000 0000 000000
2016-05-10 02:04:17,0.00,0.13,0.00,18.25,22.82,26.94,14.90,49.52,1014.72,2054.98,3503.00,3146.97,3569.01,600.08,604.72,6.02,0000 0000 0000 0000 000000
2016-05-10 02:09:19,0.03,0.13,0.00,18.28,22.83,26.95,14.79,49.25,1014.71,2054.97,3502.46,3146.49,3568.98,599.90,604.46,6.07,0000 0000 0000 0000 000000
2016-05-10 02:14:20,0.02,0.13,0.00,18.29,22.84,27.01,14.94,49.45,1014.72,2054.96,3502.00,3146.04,3568.31,600.39,605.01,6.12,0000 0000 0000 0000 000000
2016-05-10 02:19:21,0.01,0.13,0.00,18.32,22.86,27.05,14.83,49.50,1014.76,2054.90,3501.46,3145.96,3568.00,599.98,604.55,6.17,0000 0000 0000 0000 000000
2016-05-10 02:24:22,0.02,0.13,0.00,18.33,22.87,27.04,14.90,49.44,1014.83,2054.82,3501.01,3145.43,3567.67,600.24,604.74,6.22,0000 0000 0000 0000 000000
2016-05-10 02:29:23,-0.01,0.13,0.00,18.36,22.89,27.03,14.80,49.20,1014.99,2054.63,3500.52,3145.01,3567.01,599.94,604.41,6.27,0000 0000 0000 0000 000000
2016-05-10 02:34:24,0.01,0.13,0.00,18.38,22.90,27.07,14.91,49.26,1015.01,2054.34,3499.75,3144.68,3566.40,600.37,604.90,6.32,0000 0000 0000 0000 000000
2016-05-10 02:39:26,0.01,0.13,0.00,18.40,22.92,27.10,14.82,49.22,1015.07,2054.16,3499.05,3144.06,3566.01,600.27,604.76,6.37,0000 0000 0000 0000 000000
2016-05-10 02:44:27,-0.01,0.13,0.00,18.44,22.94,27.10,14.83,49.38,1015.13,2054.06,3498.93,3144.00,3565.85,600.05,604.59,6.42,0000 0000 0000 0000 000000
2016-05-10 02:49:28,0.03,0.13,0.00,18.46,22.95,27.12,14.85,49.40,1015.15,2054.05,3498.22,3143.84,3565.22,599.85,604.25,6.47,0000 0000 0000 0000 000000
2016-05-10 02:54:29,0.02,0.13,0.00,18.48,22.97,27.16,14.81,49.43,1015.15,2054.05,3497.86,3143.09,3564.98,600.10,604.54,6.52,0000 0000 0000 0000 000000
2016-05-10 02:59:31,0.02,0.13,0.00,18.51,22.99,27.17,14.84,49.42,1015.15,2054.01,3497.09,3142.98,3564.25,600.11,604.55,6.57,0000 0000 0000 0000 000000
2016-05-10 03:04:32,0.01,0.13,0.00,18.52,23.01,27.23,14.84,49.39,1015.15,2054.00,3496.90,3142.56,3564.00,599.99,604.14,6.62,0000 0000 0000 0000 000000
2016-05-10 03:09:33,0.02,0.14,0.00,18.54,23.02,27.23,14.85,49.58,1015.14,2053.99,3496.14,3142.02,3563.59,600.05,604.31,6.67,0000 0000 0000 0000 000000
2016-05-10 03:14:35,0.00,0.14,0.00,18.57,23.04,27.26,14.79,49.50,1015.15,2053.99,3495.96,3141.96,3563.01,600.09,604.30,6.73,0000 0000 0000 0000 000000
2016-05-10 03:19:36,0.04,0.14,0.00,18.59,23.06,27.25,14.79,49.41,1015.15,2053.98,3495.29,3141.47,3562.75,599.97,604.08,6.78,0000 0000 0000 0000 000000
2016-05-10 03:24:37,0.01,0.14,0.00,18.61,23.07,27.27,14.83,49.47,1015.15,2053.97,3494.99,3141.02,3562.06,600.10,604.15,6.83,0000 0000 0000 0000 000000
2016-05-10 03:29:38,0.01,0.14,0.00,18.62,23.09,27.30,14.92,49.61,1015.15,2053.93,3494.33,3140.95,3561.98,600.47,604.58,6.88,0000 0000 0000 0000 000000
2016-05-10 03:34:40,0.02,0.14,0.00,18.66,23.11,27.35,14.85,49.33,1015.15,2053.86,3493.99,3140.41,3561.50,600.24,604.25,6.93,0000 0000 0000 0000 000000
2016-05-10 03:39:41,0.01,0.14,0.00,18.67,23.13,27.37,14.86,49.46,1015.15,2053.62,3493.34,3140.01,3561.02,600.19,604.09,6.98,0000 0000 0000 0000 000000
2016-05-10 03:44:43,-0.02,0.14,0.00,18.69,23.14,27.38,14.80,49.41,1015.15,2053.45,3493.00,3139.96,3560.77,599.59,603.59,7.03,0000 0000 0000 0000 000000
2016-05-10 03:49:44,0.02,0.14,0.00,18.73,23.17,27.40,14.83,49.42,1015.15,2053.17,3492.59,3139.36,3560.06,600.02,603.91,7.08,0000 0000 0000 0000 000000
2016-05-10 03:54:46,0.00,0.14,0.00,18.75,23.19,27.41,14.74,49.39,1015.15,2053.02,3492.02,3139.00,3559.95,599.78,603.78,7.13,0000 0000 0000 0000 000000
2016-05-10 03:59:47,0.02,0.14,0.00,18.77,23.20,27.46,14.85,49.46,1015.16,2053.01,3491.71,3138.96,3559.34,599.84,603.65,7.18,0000 0000 0000 0000 000000
2016-05-10 04:04:48,0.02,0.14,0.00,18.77,23.22,27.43,14.79,49.23,1015.17,2053.00,3491.07,3138.40,3559.01,599.67,603.53,7.23,0000 0000 0000 0000 000000
2016-05-10 04:09:49,0.01,0.14,0.00,18.80,23.24,27.48,14.74,49.13,1015.17,2053.00,3490.96,3138.01,3558.85,599.89,603.50,7.28,0000 0000 0000 0000 000000
2016-05-10 04:14:50,0.01,0.15,0.00,18.81,23.26,27.50,14.84,49.32,1015.19,2053.00,3490.43,3138.00,3558.18,599.88,603.69,7.33,0000 0000 0000 0000 000000
2016-05-10 04:19:51,0.01,0.15,0.00,18.84,23.28,27.46,14.80,49.20,1015.18,2052.99,3490.01,3137.71,3558.00,600.11,603.93,7.38,0000 0000 0000 0000 000000
2016-05-10 04:24:53,0.03,0.15,0.00,18.86,23.29,27.52,14.89,49.27,1015.20,2052.98,3489.66,3137.07,3557.65,600.22,603.89,7.43,0000 0000 0000 0000 000000
2016-05-10 04:29:54,0.01,0.15,0.00,18.89,23.32,27.54,14.85,49.42,1015.32,2052.96,3489.02,3136.97,3557.02,600.06,603.68,7.48,0000 0000 0000 0000 000000
2016-05-10 04:34:55,0.00,0.15,0.00,18.91,23.34,27.59,14.79,49.35,1015.49,2052.94,3488.93,3136.76,3556.98,599.92,603.59,7.53,0000 0000 0000 0000 000000
2016-05-10 04:39:56,0.04,0.15,0.00,18.92,23.36,27.60,14.89,49.47,1015.63,2052.94,3488.27,3136.15,3556.55,600.23,604.02,7.58,0000 0000 0000 0000 000000
2016-05-10 04:44:58,-0.03,0.15,0.00,18.93,23.37,27.60,14.79,49.27,1015.64,2052.67,3488.00,3135.99,3556.02,599.69,603.45,7.63,0000 0000 0000 0000 000000
2016-05-10 04:49:59,-0.01,0.15,0.00,18.95,23.39,27.63,14.79,49.14,1015.64,2052.23,3487.49,3135.78,3555.84,600.02,603.66,7.68,0000 0000 0000 0000 000000
2016-05-10 04:55:00,0.02,0.15,0.00,18.98,23.41,27.68,14.80,49.32,1015.64,2052.08,3487.01,3135.12,3555.14,599.97,603.62,7.73,0000 0000 0000 0000 000000
2016-05-10 05:00:02,0.00,0.15,0.00,18.98,23.43,27.66,14.76,49.10,1015.64,2052.05,3486.81,3135.00,3554.99,599.65,603.51,7.78,0000 0000 0000 0000 000000
2016-05-10 05:05:03,0.01,0.15,0.00,19.01,23.45,27.63,14.77,49.18,1015.64,2052.04,3486.11,3135.00,3554.77,599.99,603.67,7.83,0000 0000 0000 0000 000000
2016-05-10 05:10:04,0.00,0.15,0.00,19.03,23.47,27.70,14.89,49.08,1015.64,2052.01,3485.98,3134.91,3554.08,600.37,603.91,7.88,0000 0000 0000 0000 000000
2016-05-10 05:15:05,0.03,0.15,0.00,19.04,23.49,27.71,14.84,49.06,1015.61,2052.00,3485.28,3134.15,3553.99,599.69,603.31,7.93,0000 0000 0000 0000 000000
2016-05-10 05:20:07,0.01,0.15,0.00,19.04,23.51,27.75,14.80,49.10,1015.63,2052.00,3485.00,3134.00,3553.37,600.07,603.52,7.98,0000 0000 0000 0000 000000
2016-05-10 05:25:08,0.01,0.15,0.00,19.04,23.52,27.77,14.82,49.10,1015.64,2052.00,3484.74,3133.96,3553.01,599.92,603.46,8.03,0000 0000 0000 0000 000000
2016-05-10 05:30:09,0.02,0.16,0.00,19.07,23.55,27.77,14.82,49.13,1015.64,2051.99,3484.04,3133.33,3552.93,600.14,603.62,8.08,0000 0000 0000 0000 000000
2016-05-10 05:35:10,0.01,0.16,0.00,19.10,23.56,27.80,14.77,49.32,1015.64,2051.98,3483.91,3133.01,3552.14,599.76,603.23,8.13,0000 0000 0000 0000 000000
2016-05-10 05:40:12,0.01,0.16,0.00,19.12,23.57,27.79,14.81,49.27,1015.64,2051.96,3483.22,3132.99,3552.01,600.14,603.45,8.18,0000 0000 0000 0000 000000
2016-05-10 05:45:13,0.01,0.16,0.00,19.15,23.60,27.80,14.88,49.36,1015.63,2051.83,3482.99,3132.53,3551.88,600.46,603.74,8.23,0000 0000 0000 0000 000000
2016-05-10 05:50:14,-0.02,0.16,0.00,19.18,23.61,27.82,14.85,49.31,1015.63,2051.37,3482.41,3132.01,3551.14,600.26,603.50,8.28,0000 0000 0000 0000 000000
2016-05-10 05:55:15,-0.00,0.16,0.00,19.20,23.63,27.82,14.88,49.40,1015.64,2051.19,3482.01,3131.99,3550.97,600.11,603.39,8.33,0000 0000 0000 0000 000000
2016-05-10 06:00:16,0.02,0.16,0.00,19.22,23.65,27.86,14.71,49.13,1015.64,2051.06,3481.62,3131.56,3550.28,600.00,603.15,8.38,0000 0000 0000 0000 000000
2016-05-10 06:05:18,0.01,0.16,0.00,19.22,23.67,27.91,14.78,49.10,1015.64,2051.01,3481.02,3131.03,3550.00,599.55,602.73,8.43,0000 0000 0000 0000 000000
2016-05-10 06:10:19,0.02,0.16,0.00,19.26,23.69,27.92,14.86,49.19,1015.64,2051.01,3480.63,3130.97,3549.69,600.19,603.26,8.48,0000 0000 0000 0000 000000
2016-05-10 06:15:20,0.03,0.16,0.00,19.28,23.71,27.91,14.72,48.81,1015.63,2051.00,3480.03,3130.39,3549.05,599.89,602.92,8.53,0000 0000 0000 0000 000000
2016-05-10 06:20:21,0.01,0.16,0.00,19.29,23.73,27.95,14.87,49.18,1015.63,2051.00,3479.72,3130.01,3548.89,600.73,603.65,8.58,0000 0000 0000 0000 000000
2016-05-10 06:25:23,0.02,0.16,0.00,19.30,23.75,27.92,14.76,49.26,1015.64,2050.99,3479.05,3129.93,3548.14,600.00,602.99,8.63,0000 0000 0000 0000 000000
2016-05-10 06:30:24,0.02,0.16,0.00,19.31,23.77,27.94,14.76,49.17,1015.64,2050.98,3478.86,3129.23,3548.00,599.97,602.95,8.68,0000 0000 0000 0000 000000
2016-05-10 06:35:25,0.02,0.17,0.00,19.32,23.79,28.00,14.84,49.26,1015.64,2050.98,3478.08,3129.00,3547.40,600.19,603.12,8.73,0000 0000 0000 0000 000000
2016-05-10 06:40:26,0.01,0.17,0.00,19.33,23.80,28.01,14.78,49.28,1015.64,2050.98,3477.91,3128.92,3547.01,599.90,602.77,8.78,0000 0000 0000 0000 000000
2016-05-10 06:45:28,0.03,0.17,0.00,19.35,23.82,28.01,14.75,49.23,1015.65,2050.98,3477.17,3128.23,3546.87,599.73,602.65,8.83,0000 0000 0000 0000 000000
2016-05-10 06:50:29,0.00,0.17,0.00,19.37,23.84,28.04,14.80,49.10,1015.68,2050.88,3476.94,3128.00,3546.12,600.02,602.85,8.88,0000 0000 0000 0000 000000
2016-05-10 06:55:30,0.00,0.17,0.00,19.38,23.86,28.06,14.84,49.01,1015.70,2050.73,3476.18,3127.95,3545.99,600.66,603.52,8.93,0000 0000 0000 0000 000000
2016-05-10 07:00:31,0.00,0.17,0.00,19.40,23.88,28.09,14.80,49.15,1015.66,2050.38,3475.97,3127.20,3545.26,599.90,602.67,8.98,0000 0000 0000 0000 000000
2016-05-10 07:05:33,-0.00,0.17,0.00,19.41,23.90,28.12,14.78,49.27,1015.68,2050.12,3475.18,3126.99,3544.98,600.20,603.05,9.03,0000 0000 0000 0000 000000
2016-05-10 07:10:34,0.01,0.17,0.00,19.40,23.92,28.13,14.83,49.18,1015.79,2050.03,3474.99,3126.79,3544.49,600.28,603.16,9.08,0000 0000 0000 0000 000000
2016-05-10 07:15:35,0.03,0.17,0.00,19.42,23.93,28.11,14.86,49.33,1015.97,2050.01,3474.26,3126.10,3544.02,600.19,603.16,9.14,0000 0000 0000 0000 000000
2016-05-10 07:20:37,0.00,0.17,0.00,19.45,23.95,28.12,14.80,49.24,1015.98,2050.00,3473.98,3126.00,3543.90,599.64,602.55,9.19,0000 0000 0000 0000 000000
2016-05-10 07:25:38,0.03,0.17,0.00,19.47,23.97,28.12,14.87,49.11,1015.95,2050.00,3473.28,3125.72,3543.18,599.90,602.73,9.24,0000 0000 0000 0000 000000
2016-05-10 07:30:39,0.01,0.17,0.00,19.47,23.98,28.17,14.83,49.16,1016.04,2050.00,3473.00,3125.05,3542.98,600.20,603.11,9.29,0000 0000 0000 0000 000000
2016-05-10 07:35:40,0.02,0.17,0.00,19.47,24.00,28.16,14.77,49.02,1016.07,2050.00,3472.62,3125.00,3542.53,600.11,603.05,9.34,0000 0000 0000 0000 000000
2016-05-10 07:40:41,0.00,0.17,0.00,19.49,24.01,28.20,14.80,49.06,1016.08,2049.99,3472.03,3124.91,3542.02,599.69,602.49,9.39,0000 0000 0000 0000 000000
2016-05-10 07:45:42,0.03,0.18,0.00,19.49,24.02,28.24,14.78,49.02,1016.06,2049.99,3471.84,3124.18,3541.95,599.92,602.99,9.44,0000 0000 0000 0000 000000
2016-05-10 07:50:44,0.02,0.18,0.00,19.51,24.05,28.25,14.77,49.02,1016.10,2049.98,3471.11,3124.00,3541.27,600.18,603.02,9.49,0000 0000 0000 0000 000000
2016-05-10 07:55:45,0.00,0.18,0.00,19.52,24.05,28.27,14.72,49.05,1016.12,2049.98,3470.86,3123.95,3541.00,599.82,602.74,9.54,0000 0000 0000 0000 000000
2016-05-10 08:00:46,0.03,0.18,0.00,19.52,24.07,28.28,14.81,49.07,1016.13,2049.98,3470.11,3123.33,3540.73,599.73,602.56,9.59,0000 0000 0000 0000 000000
2016-05-10 08:05:48,0.01,0.18,0.00,19.52,24.08,28.28,14.86,48.99,1016.13,2049.94,3469.97,3123.01,3540.05,600.06,602.95,9.64,0000 0000 0000 0000 000000
2016-05-10 08:10:49,0.00,0.18,0.00,19.51,24.10,28.32,14.84,49.10,1016.13,2049.82,3469.27,3122.96,3539.98,600.19,603.05,9.69,0000 0000 0000 0000 000000
2016-05-10 08:15:50,0.03,0.18,0.00,19.50,24.11,28.28,14.74,48.98,1016.13,2049.61,3468.99,3122.29,3539.37,599.78,602.61,9.74,0000 0000 0000 0000 000000
2016-05-10 08:20:51,0.01,0.18,0.00,19.49,24.12,28.32,14.79,49.08,1016.13,2049.67,3468.50,3122.01,3539.02,599.58,602.49,9.79,0000 0000 0000 0000 000000
2016-05-10 08:25:53,-0.01,0.18,0.00,19.49,24.13,28.28,14.77,49.08,1016.13,2049.60,3468.02,3121.99,3538.96,600.09,602.96,9.84,0000 0000 0000 0000 000000
2016-05-10 08:30:54,0.00,0.18,0.00,19.49,24.15,28.29,14.84,48.94,1016.13,2049.40,3467.82,3121.70,3538.23,600.19,603.04,9.89,0000 0000 0000 0000 000000
2016-05-10 08:35:55,0.01,0.18,0.00,19.49,24.15,28.29,14.78,48.89,1016.13,2049.17,3467.10,3121.10,3538.00,599.66,602.52,9.94,0000 0000 0000 0000 000000
2016-05-10 08:40:56,0.00,0.18,0.00,19.49,24.16,28.28,14.90,49.17,1016.13,2049.06,3466.90,3121.00,3537.68,600.25,603.09,9.99,0000 0000 0000 0000 000000
2016-05-10 08:45:57,0.02,0.18,0.00,19.49,24.17,28.20,14.90,49.04,1016.13,2049.08,3466.18,3120.94,3537.09,600.10,603.00,10.04,0000 0000 0000 0000 000000
2016-05-10 08:50:59,0.02,0.18,0.00,19.48,24.17,28.24,14.85,49.07,1016.14,2049.04,3465.98,3120.36,3536.99,600.15,603.07,10.09,0000 0000 0000 0000 000000
2016-05-10 08:56:00,0.02,0.19,0.00,19.49,24.17,28.27,14.74,49.02,1016.15,2049.02,3465.25,3120.00,3536.55,599.79,602.68,10.14,0000 0000 0000 0000 000000
2016-05-10 09:01:01,0.00,0.19,0.00,19.49,24.19,28.18,14.77,49.06,1016.16,2049.01,3465.00,3119.99,3536.02,600.18,603.02,10.19,0000 0000 0000 0000 000000
2016-05-10 09:06:03,0.02,0.19,0.00,19.48,24.19,28.20,14.78,49.02,1016.21,2049.01,3464.60,3119.58,3535.98,599.91,602.86,10.24,0000 0000 0000 0000 000000
2016-05-10 09:11:04,0.02,0.19,0.00,19.48,24.20,28.20,14.74,48.83,1016.24,2049.00,3464.03,3119.04,3535.55,599.64,602.64,10.29,0000 0000 0000 0000 000000
2016-05-10 09:16:06,0.00,0.19,0.00,19.46,24.20,28.23,14.80,48.88,1016.18,2049.00,3463.88,3118.99,3535.03,599.85,602.84,10.34,0000 0000 0000 0000 000000
2016-05-10 09:21:07,0.01,0.19,0.00,19.46,24.20,28.22,14.79,48.90,1016.23,2049.00,3463.13,3118.90,3534.96,599.72,602.58,10.39,0000 0000 0000 0000 000000
2016-05-10 09:26:08,0.02,0.19,0.00,19.46,24.20,28.20,14.82,49.02,1016.35,2049.00,3462.99,3118.23,3534.50,599.73,602.82,10.44,0000 0000 0000 0000 000000
2016-05-10 09:31:10,0.01,0.19,0.00,19.45,24.21,28.19,14.78,48.89,1016.54,2049.00,3462.68,3118.01,3534.04,600.05,603.29,10.49,0000 0000 0000 0000 000000
2016-05-10 09:36:11,0.00,0.19,0.00,19.45,24.22,28.18,14.77,49.13,1016.61,2049.00,3462.05,3118.00,3533.99,599.75,602.78,10.54,0000 0000 0000 0000 000000
2016-05-10 09:41:12,0.00,0.19,0.00,19.44,24.22,28.17,14.73,48.98,1016.62,2049.00,3462.00,3117.97,3533.96,599.52,602.88,10.59,0000 0000 0000 0000 000000
2016-05-10 09:46:13,0.02,0.19,0.00,19.43,24.22,28.14,14.80,48.80,1016.62,2049.00,3461.79,3117.85,3533.44,599.92,603.22,10.64,0000 0000 0000 0000 000000
2016-05-10 09:51:15,0.03,0.20,0.00,19.42,24.22,28.13,14.76,48.83,1016.62,2049.00,3461.07,3117.17,3533.02,600.08,603.46,10.69,0000 0000 0000 0000 000000
2016-05-10 09:56:16,0.00,0.20,0.00,19.43,24.22,28.12,14.88,49.02,1016.63,2049.00,3460.98,3117.00,3532.99,600.02,603.41,10.74,0000 0000 0000 0000 000000
2016-05-10 10:01:17,0.01,0.20,0.00,19.42,24.22,28.17,14.84,48.93,1016.63,2049.00,3460.51,3117.00,3532.74,600.11,603.40,10.79,0000 0000 0000 0000 000000
2016-05-10 10:06:19,0.01,0.20,0.00,19.40,24.22,28.13,14.81,48.84,1016.62,2049.00,3460.02,3116.89,3532.09,600.34,603.72,10.84,0000 0000 0000 0000 000000
2016-05-10 10:11:20,0.01,0.20,0.00,19.39,24.21,28.10,14.80,49.08,1016.62,2049.00,3459.91,3116.33,3532.00,599.88,603.26,10.89,0000 0000 0000 0000 000000
2016-05-10 10:16:21,0.01,0.20,0.00,19.37,24.21,28.10,14.77,48.88,1016.63,2049.00,3459.25,3116.02,3531.98,599.62,603.33,10.94,0000 0000 0000 0000 000000
2016-05-10 10:21:23,0.00,0.20,0.00,19.37,24.20,28.12,14.84,49.00,1016.65,2049.00,3459.02,3116.00,3531.75,599.65,603.14,10.99,0000 0000 0000 0000 000000
2016-05-10 10:26:24,0.00,0.20,0.00,19.36,24.20,28.08,14.80,49.07,1016.65,2049.00,3458.99,3115.99,3531.14,600.39,603.81,11.04,0000 0000 0000 0000 000000
2016-05-10 10:31:26,0.01,0.20,0.00,19.36,24.20,28.07,14.81,48.91,1016.63,2049.00,3458.45,3115.95,3531.01,600.17,603.67,11.09,0000 0000 0000 0000 000000
2016-05-10 10:36:27,0.02,0.20,0.00,19.33,24.20,28.07,14.81,48.84,1016.64,2049.00,3458.01,3115.35,3530.99,599.84,603.39,11.14,0000 0000 0000 0000 000000
2016-05-10 10:41:28,0.01,0.20,0.00,19.33,24.19,28.08,14.84,48.89,1016.67,2049.00,3457.91,3115.03,3530.60,600.23,603.77,11.19,0000 0000 0000 0000 000000
2016-05-10 10:46:30,0.02,0.20,0.00,19.31,24.18,28.15,14.82,48.90,1016.72,2049.00,3457.14,3115.00,3530.03,599.81,603.45,11.24,0000 0000 0000 0000 000000
2016-05-10 10:51:31,0.01,0.20,0.00,19.30,24.17,28.06,14.79,49.06,1016.77,2049.00,3456.82,3114.86,3529.98,600.36,604.13,11.29,0000 0000 0000 0000 000000
2016-05-10 10:56:32,0.03,0.21,0.00,19.29,24.17,28.07,14.80,48.97,1016.71,2049.00,3456.21,3114.40,3529.62,599.88,603.65,11.34,0000 0000 0000 0000 000000
2016-05-10 11:01:33,0.01,0.21,0.00,19.27,24.17,28.00,14.87,49.02,1016.71,2049.01,3456.00,3114.03,3529.08,600.37,604.07,11.39,0000 0000 0000 0000 000000
2016-05-10 11:06:35,0.00,0.21,0.00,19.24,24.15,28.03,14.85,49.06,1016.77,2049.01,3455.99,3114.00,3529.00,599.92,603.64,11.44,0000 0000 0000 0000 000000
2016-05-10 11:11:36,0.01,0.21,0.00,19.24,24.15,27.99,14.81,48.97,1016.83,2049.02,3455.46,3113.99,3529.00,599.94,603.75,11.50,0000 0000 0000 0000 000000
2016-05-10 11:16:37,0.00,0.21,0.00,19.21,24.15,28.01,14.87,48.97,1016.97,2049.05,3455.02,3113.97,3528.97,599.88,603.93,11.55,0000 0000 0000 0000 000000
2016-05-10 11:21:38,0.02,0.21,0.00,19.18,24.13,28.01,14.77,49.02,1017.07,2049.06,3454.99,3113.66,3528.45,600.25,604.34,11.60,0000 0000 0000 0000 000000
2016-05-10 11:26:40,0.02,0.21,0.00,19.17,24.12,27.98,14.82,49.02,1017.07,2049.09,3454.48,3113.08,3528.02,599.94,604.08,11.65,0000 0000 0000 0000 000000
2016-05-10 11:31:41,0.01,0.21,0.00,19.17,24.12,27.98,14.73,48.98,1017.08,2049.15,3454.04,3113.01,3528.00,600.23,604.30,11.70,0000 0000 0000 0000 000000
2016-05-10 11:36:42,0.01,0.21,0.00,19.16,24.10,27.97,14.83,49.08,1017.08,2049.18,3453.98,3113.00,3527.96,599.79,604.04,11.75,0000 0000 0000 0000 000000
2016-05-10 11:41:44,0.02,0.21,0.00,19.12,24.10,27.96,14.85,49.06,1017.09,2049.30,3453.63,3112.98,3527.61,599.85,604.12,11.80,0000 0000 0000 0000 000000
2016-05-10 11:46:45,0.01,0.21,0.00,19.11,24.08,28.03,14.79,49.11,1017.10,2049.16,3453.04,3112.70,3527.05,599.87,604.13,11.85,0000 0000 0000 0000 000000
2016-05-10 11:51:47,0.05,0.21,0.00,19.09,24.07,27.91,14.82,49.01,1017.10,2049.59,3453.00,3112.51,3527.01,600.07,604.31,11.90,0000 0000 0000 0000 000000
2016-05-10 11:56:48,-0.00,0.22,0.00,19.08,24.06,27.88,14.78,48.92,1017.10,2049.55,3452.72,3112.07,3526.99,599.87,604.18,11.95,0000 0000 0000 0000 000000
2016-05-10 12:01:49,0.03,0.22,0.00,19.06,24.05,27.95,14.84,49.08,1017.10,2049.75,3452.09,3112.00,3526.89,599.97,604.34,12.00,0000 0000 0000 0000 000000
2016-05-10 12:06:50,0.02,0.22,0.00,19.02,24.03,27.90,14.82,48.89,1017.10,2049.93,3452.00,3112.00,3526.29,599.56,604.12,12.05,0000 0000 0000 0000 000000
2016-05-10 12:11:51,0.00,0.22,0.00,19.02,24.02,27.88,14.90,48.98,1017.10,2049.96,3451.95,3111.99,3526.03,600.28,604.65,12.10,0000 0000 0000 0000 000000
2016-05-10 12:16:52,0.01,0.22,0.00,18.99,24.01,27.85,14.84,49.01,1017.10,2049.98,3451.42,3111.95,3526.00,600.12,604.65,12.15,0000 0000 0000 0000 000000
2016-05-10 12:21:53,0.01,0.22,0.00,18.96,24.00,27.90,14.93,49.08,1017.10,2049.99,3451.01,3111.61,3526.00,599.95,604.52,12.20,0000 0000 0000 0000 000000
2016-05-10 12:26:55,0.01,0.22,0.00,18.94,23.98,27.86,14.89,49.08,1017.10,2049.99,3450.97,3111.14,3525.93,600.20,604.80,12.25,0000 0000 0000 0000 000000
2016-05-10 12:31:56,0.02,0.22,0.00,18.93,23.97,27.86,14.89,49.04,1017.10,2049.99,3450.54,3111.03,3525.45,600.00,604.68,12.30,0000 0000 0000 0000 000000
2016-05-10 12:36:57,0.00,0.22,0.00,18.90,23.95,27.85,14.86,49.05,1017.10,2049.99,3450.02,3111.00,3525.04,600.03,604.63,12.35,0000 0000 0000 0000 000000
2016-05-10 12:41:58,0.00,0.22,0.00,18.89,23.94,27.83,14.85,49.17,1017.10,2049.99,3449.96,3110.99,3525.00,600.11,604.89,12.40,0000 0000 0000 0000 000000
2016-05-10 12:47:00,0.00,0.22,0.00,18.87,23.92,27.84,14.82,49.13,1017.09,2050.00,3449.68,3110.99,3524.99,599.96,604.66,12.45,0000 0000 0000 0000 000000
2016-05-10 12:52:01,0.01,0.22,0.00,18.87,23.91,27.85,14.89,49.09,1017.09,2050.00,3449.09,3110.85,3524.86,600.05,604.60,12.50,0000 0000 0000 0000 000000
2016-05-10 12:57:02,0.03,0.23,0.00,18.84,23.90,27.74,14.85,48.99,1017.09,2050.02,3448.99,3110.23,3524.17,599.60,604.63,12.55,0000 0000 0000 0000 000000
2016-05-10 13:02:03,0.01,0.23,0.00,18.82,23.87,27.70,14.85,48.95,1017.05,2050.03,3448.74,3110.02,3524.01,600.05,604.92,12.60,0000 0000 0000 0000 000000